Temperature
19 19 19 19 19 19 20 20 20 19 19 19 19 19 19 19 19 19 19 18 18 18 18 18 18 18 18 18 18 17 17 17 17 17 17 17 17 17 17 17 17 17 17
20 19 19 19 19 20 20 20 20 19 19 19 19 19 19 19 19 19 18 18 18 18 18 18 18 18 18 18 17 17 17 17 17 17 17 17 17 17 17 17 17 17 17
20 19 19 19 20 20 20 20 20 19 19 19 19 19 19 19 19 18 18 18 18 18 18 18 18 18 18 17 17 17 17 17 17 17 17 17 17 17 17 17 17 17 17
20 20 19 19 20 20 20 20 19 19 19 19 19 19 19 19 18 18 18 18 18 18 18 18 18 17 17 17 17 17 17 17 17 17 17 17 17 17 17 17 17 17 16
20 20 20 19 19 19 20 19 19 19 19 19 19 19 19 18 18 18 18 18 18 18 18 18 18 17 17 17 17 17 17 17 17 17 17 17 17 17 16 16 16 16 16
20 20 20 19 19 19 19 19 19 19 19 19 19 19 18 18 18 18 18 18 18 18 18 17 17 17 17 17 17 17 17 17 17 17 17 17 17 17 16 16 16 16 16
20 20 19 19 19 19 19 19 19 19 19 19 19 18 18 18 18 18 18 18 18 18 17 17 17 17 17 17 17 17 17 17 17 17 17 17 17 17 16 16 16 16 16
20 20 19 19 19 19 19 19 19 19 19 19 18 18 18 18 18 18 18 18 18 18 17 17 17 17 17 17 17 17 17 17 17 17 17 17 17 17 16 16 16 16 16
20 20 19 19 19 19 19 19 19 19 19 19 18 18 18 18 18 18 18 18 18 17 17 17 17 17 17 17 17 17 17 17 17 17 17 17 17 16 16 16 16 16 16
20 19 19 19 19 19 19 19 19 19 18 18 18 18 18 18 18 18 18 18 18 17 17 17 17 17 17 17 17 17 17 17 17 17 17 17 17 17 16 16 16 16 16
19 19 19 19 19 19 19 18 18 18 18 18 18 18 18 18 18 18 18 18 17 17 17 17 17 17 17 17 17 17 17 17 17 17 17 17 17 17 17 16 16 16 16
19 19 19 19 19 19 18 18 18 18 18 18 18 18 18 18 18 18 18 17 17 17 17 17 17 17 17 17 17 17 17 17 17 17 17 17 17 17 17 16 16 16 16
20 19 19 19 19 18 18 18 18 18 18 18 18 18 18 18 18 18 18 17 17 17 17 17 17 17 17 17 17 17 17 17 17 17 17 17 17 17 17 17 16 16 16
20 20 19 19 19 19 18 18 18 18 18 18 18 18 18 18 18 18 18 18 17 17 17 17 17 17 17 17 17 17 17 17 17 17 17 17 17 17 17 17 16 16 16
20 19 19 19 19 19 18 18 18 18 18 18 18 18 18 18 18 18 18 17 17 17 17 17 17 17 17 17 17 17 17 17 17 17 17 17 17 17 17 17 17 16 16
20 19 19 19 19 19 18 18 18 18 18 18 18 18 18 18 18 18 18 17 17 17 17 17 17 17 17 17 17 17 17 17 17 17 17 17 17 17 17 17 17 16 16
20 20 19 19 18 18 18 18 18 18 18 18 18 17 17 17 18 18 18 17 17 17 17 17 17 17 17 17 17 17 17 17 17 17 17 17 17 17 17 16 16 16 16
20 19 19 18 18 18 18 18 18 18 18 17 17 17 17 17 17 17 17 17 17 17 17 17 17 17 17 17 17 17 17 17 17 17 17 17 17 17 17 16 16 16 16
20 19 19 18 18 18 18 18 18 17 17 17 17 17 17 17 17 17 17 17 17 17 17 17 17 17 17 17 17 17 17 17 17 17 17 17 17 16 16 16 16 16 16
19 19 18 18 18 18 17 17 17 17 17 17 17 17 17 17 17 17 17 17 17 17 17 17 17 17 17 17 17 17 17 17 17 17 17 17 16 16 16 16 16 16 16
19 19 18 18 18 18 17 17 17 17 17 17 17 17 17 17 17 17 17 17 17 17 17 17 17 17 17 17 17 17 17 17 17 17 17 17 17 16 16 16 16 16 16
19 19 18 18 18 18 18 18 18 18 17 17 17 17 17 17 17 17 17 17 17 17 17 17 17 17 17 17 17 17 17 17 17 17 17 17 17 17 16 16 16 16 16
19 19 19 18 18 18 18 18 17 17 17 17 17 17 17 17 17 17 17 17 17 17 17 17 17 17 17 17 17 17 17 17 17 17 17 17 17 17 17 16 16 16 16
19 19 18 18 18 18 18 18 18 17 17 18 18 17 17 17 17 17 17 17 17 17 17 17 17 17 17 17 17 17 17 17 17 17 17 17 17 17 17 17 17 16 16
19 19 18 18 18 18 18 18 18 18 18 17 17 17 17 17 17 17 17 17 17 17 17 17 17 17 17 17 17 17 17 17 17 17 17 17 17 17 17 17 17 17 16
19 18 18 18 18 18 18 18 18 18 18 17 17 17 17 17 17 17 17 17 17 17 17 17 17 17 17 17 17 17 17 17 17 17 17 17 17 17 17 17 17 17 17
Wind_Speed
7 11 18 18 18 18 19 20 20 20 20 20 19 19 18 17 17 16 15 14 14 13 14 14 14 14 14 14 14 15 15 16 16 17 17 17 17 17 17 18 17 16 18
11 15 19 19 19 19 19 19 20 19 19 19 18 18 17 17 16 15 14 14 14 14 14 14 14 14 15 15 15 16 16 16 16 16 16 16 17 17 17 17 16 15 17
14 15 19 19 19 19 19 19 19 19 18 18 17 17 16 16 15 15 14 14 14 14 14 14 15 15 15 15 15 16 16 16 16 16 16 14 15 16 16 16 16 17 16
14 15 17 20 19 19 18 18 18 18 17 17 16 16 16 15 15 14 14 14 14 14 14 14 15 14 15 15 15 15 16 16 16 15 13 12 13 15 16 16 16 16 16
12 14 18 20 19 18 18 18 17 17 16 16 15 15 14 14 14 14 14 14 14 14 14 14 15 14 14 15 15 15 15 15 15 13 12 12 12 15 15 15 15 15 15
11 14 18 19 18 18 18 17 17 16 15 15 15 14 14 13 13 13 13 14 14 14 14 14 14 14 14 14 14 14 14 15 13 12 12 11 12 14 14 14 14 15 15
11 13 17 19 18 18 17 17 16 15 15 15 14 13 13 13 13 13 13 13 13 14 14 14 13 13 13 13 13 13 14 14 12 11 10 10 11 13 13 13 13 14 14
12 11 16 19 18 18 17 16 15 15 14 14 13 13 12 12 12 12 13 13 13 13 13 13 13 12 12 12 12 13 14 14 12 10 10 9 12 13 13 13 13 13 13
10 9 11 15 16 17 16 16 15 14 14 14 13 12 12 12 12 12 12 12 12 12 12 12 12 11 11 11 12 13 13 13 11 9 9 9 11 12 12 12 12 12 12
8 7 7 11 12 13 14 15 15 14 14 13 13 12 12 11 11 11 11 11 11 11 11 11 11 11 10 11 11 12 13 12 10 9 8 9 11 11 11 11 11 11 11
9 6 6 7 9 10 11 13 14 14 13 12 12 12 10 9 9 9 10 10 11 11 10 10 10 10 10 10 11 11 11 10 9 8 7 9 10 10 10 11 11 11 11
12 9 7 7 8 9 9 10 10 9 10 9 9 10 10 9 8 8 9 10 10 10 9 9 9 9 9 8 9 10 9 9 8 7 7 9 10 10 10 10 10 10 10
12 10 8 7 8 7 6 7 7 7 8 8 9 10 9 8 7 6 6 6 7 7 7 7 7 7 7 7 7 7 8 7 7 6 7 9 9 9 10 9 9 9 9
11 10 9 8 7 7 7 6 6 6 6 6 8 9 8 6 5 4 4 5 5 5 5 5 5 5 5 5 6 6 6 5 5 5 7 8 8 8 9 9 9 9 9
10 10 10 9 8 7 6 6 6 5 6 6 7 8 8 6 4 4 4 4 4 5 5 4 4 4 4 4 5 5 5 5 5 5 6 8 8 8 8 8 9 9 8
11 10 9 10 9 7 6 5 5 6 6 7 7 8 9 7 6 5 3 3 3 4 4 3 3 3 3 3 3 4 4 5 5 5 5 7 8 9 9 8 9 9 8
12 10 9 9 8 8 7 6 6 6 6 5 6 8 9 9 8 6 4 3 3 4 5 4 4 3 2 2 2 2 3 4 5 5 5 5 6 8 9 9 9 9 9
10 11 10 10 9 8 7 6 6 7 7 6 7 8 9 10 9 7 4 3 4 4 4 3 3 2 2 2 1 1 2 3 4 4 5 5 6 6 8 9 10 10 10
11 12 11 10 10 9 7 6 5 6 6 6 7 8 9 10 9 8 5 4 5 4 3 3 2 2 2 2 2 1 1 2 2 4 5 6 7 7 7 8 10 10 11
10 11 11 10 10 8 6 4 3 4 4 6 7 8 9 9 10 8 6 6 6 4 3 3 3 2 2 2 2 1 0 1 2 3 5 6 7 8 8 8 8 9 10
10 10 11 11 10 9 6 6 5 5 5 4 6 9 9 9 10 8 5 5 5 4 5 5 3 3 2 2 2 1 1 1 2 3 4 4 6 8 8 8 8 8 8
10 10 10 10 10 9 7 6 4 4 4 4 4 6 9 9 9 8 6 5 5 4 4 5 4 3 2 2 3 2 1 2 2 2 3 4 5 6 7 8 9 9 9
9 9 10 10 9 9 8 5 4 3 2 2 3 4 6 9 10 9 8 6 5 5 5 5 5 5 4 2 2 3 3 3 2 2 2 3 4 4 5 7 8 9 9
7 7 8 8 9 8 8 7 8 6 5 5 4 4 5 8 9 10 9 8 6 5 5 5 5 4 4 3 2 1 2 3 2 1 2 1 2 3 4 5 6 8 9
7 7 7 7 7 8 8 9 8 5 4 3 3 4 4 4 6 8 8 8 6 5 5 5 5 5 4 4 4 2 2 1 1 2 1 2 1 1 2 4 4 5 7
6 7 7 7 7 7 8 8 8 7 6 5 4 4 4 3 3 5 7 7 6 5 5 5 5 6 5 4 4 3 3 3 3 3 3 2 1 1 1 1 2 4 5
Wind_Direction
149 148 141 135 129 123 119 116 116 116 117 119 120 122 123 123 124 123 121 119 116 114 111 110 110 109 111 113 113 113 113 113 113 112 111 111 110 110 109 108 108 109 110
145 148 144 139 133 127 123 121 119 119 120 120 121 122 123 124 124 124 122 119 116 114 113 112 111 110 110 111 112 114 114 112 112 112 110 109 109 109 109 109 109 114 114
140 146 144 141 137 132 128 125 123 122 121 121 121 121 122 123 124 124 123 120 117 115 114 113 112 111 112 112 113 114 113 111 109 107 104 103 108 109 110 111 111 112 114
141 144 146 144 140 136 133 130 127 125 124 123 122 122 123 124 125 125 123 122 119 117 115 114 114 113 114 114 114 112 111 109 106 103 100 105 109 112 112 112 112 112 113
137 143 150 147 144 140 136 133 131 128 127 125 125 125 125 126 126 124 123 122 120 118 117 116 115 115 115 115 115 114 113 111 106 102 99 101 108 113 113 112 112 113 113
136 144 152 149 147 144 141 138 135 133 131 129 128 128 127 127 126 125 124 123 121 120 119 118 117 117 117 117 119 119 116 112 105 103 102 106 112 115 114 113 114 113 113
139 146 154 152 151 149 146 143 140 138 136 134 132 131 129 129 128 126 124 122 121 121 121 119 118 119 119 119 120 121 119 116 110 107 105 108 114 115 114 113 115 115 114
143 145 155 155 155 153 149 146 145 142 139 137 135 133 131 130 129 128 125 124 123 122 121 120 119 118 116 116 117 119 120 119 117 112 108 111 116 115 114 115 118 119 117
138 140 148 155 157 155 153 151 149 147 144 141 139 136 134 133 132 131 129 127 125 123 124 122 119 117 118 119 119 123 125 121 120 119 118 118 121 121 121 122 121 121 120
132 134 138 144 149 153 156 156 153 150 149 146 144 143 141 139 137 133 131 130 129 127 127 124 120 117 116 120 122 125 127 123 123 122 125 129 129 129 128 127 124 125 126
148 141 137 138 143 148 154 159 156 155 154 151 150 148 139 129 128 130 136 137 135 132 129 126 122 117 112 116 119 121 124 124 127 129 134 139 138 135 132 132 130 131 131
166 161 151 147 146 150 158 152 148 148 149 146 142 135 130 125 126 133 143 142 137 133 129 126 120 113 107 106 113 117 125 129 131 140 149 151 149 143 141 141 138 137 137
169 166 161 154 150 149 141 141 138 138 140 140 139 136 132 124 120 121 119 117 116 116 109 109 106 108 113 117 118 122 133 136 139 148 159 161 159 153 151 151 146 145 144
168 169 164 159 154 152 146 146 142 140 143 144 147 147 140 129 122 119 113 114 109 110 106 102 104 109 116 125 130 133 139 145 150 157 167 168 167 165 161 158 155 155 153
171 171 171 168 166 157 148 154 154 154 154 155 156 159 157 149 145 139 130 127 125 123 119 113 113 116 118 122 137 146 151 157 161 167 174 177 177 176 173 172 169 170 169
175 176 174 174 170 160 160 158 157 163 162 162 168 171 172 167 160 153 147 145 145 141 138 135 130 129 125 128 136 154 161 165 168 174 178 185 188 187 186 186 184 184 183
177 171 175 177 168 166 164 163 160 165 162 170 180 183 183 180 174 164 159 164 173 157 143 126 116 112 124 132 136 159 167 173 177 181 186 192 197 201 201 202 200 198 196
168 170 177 181 174 173 168 163 160 166 167 175 188 190 191 191 183 169 166 178 180 162 146 134 128 119 122 141 162 185 172 184 192 196 199 203 206 213 216 217 212 211 209
172 171 176 181 174 173 167 160 157 163 176 184 191 193 194 196 189 176 177 182 173 157 152 159 139 146 156 162 180 192 201 209 213 217 215 215 217 222 226 231 229 225 224
170 170 175 177 170 165 158 146 149 164 182 188 197 199 194 193 187 180 178 175 165 154 159 155 139 132 141 154 160 121 305 238 227 230 231 227 228 230 232 234 237 237 236
166 170 175 174 172 166 167 170 172 183 188 194 202 200 196 192 187 180 176 166 165 169 173 162 143 142 137 127 100 46 356 321 243 240 237 236 239 236 234 234 235 237 239
174 175 176 179 175 175 179 173 172 172 185 192 193 191 193 192 187 187 176 174 171 164 164 166 154 144 150 150 136 118 8 338 312 249 227 231 240 238 237 236 234 235 238
171 179 183 180 178 180 175 158 142 130 131 162 184 190 190 188 187 184 179 175 175 173 179 181 171 161 166 172 166 149 155 222 281 312 259 241 236 229 238 240 239 239 239
175 171 176 176 178 180 175 174 173 180 186 192 186 185 183 183 183 183 180 178 178 178 179 186 178 170 158 171 184 185 165 159 164 288 318 282 249 240 242 243 242 239 237
169 169 173 169 176 178 181 183 182 185 181 165 164 171 180 183 185 184 180 177 178 181 185 183 172 176 175 173 176 168 153 133 146 166 249 306 317 270 247 242 242 242 239
160 165 166 172 179 177 179 181 183 182 171 166 175 184 187 185 192 190 183 182 183 184 189 190 183 181 186 180 179 178 170 167 183 178 200 233 256 297 292 259 248 249 244
Height
1519 1522 1524 1527 1528 1530 1531 1532 1534 1535 1537 1538 1540 1541 1542 1543 1544 1546 1547 1548 1549 1550 1551 1551 1552 1553 1554 1555 1556 1556 1558 1558 1559 1560 1561 1562 1563 1564 1565 1566 1567 1568 1570
1518 1522 1525 1528 1530 1532 1533 1534 1536 1537 1539 1540 1542 1543 1544 1545 1546 1548 1549 1550 1551 1552 1552 1553 1554 1555 1556 1557 1558 1559 1560 1561 1562 1563 1564 1565 1566 1567 1568 1569 1570 1571 1572
1520 1523 1526 1529 1531 1533 1535 1537 1538 1539 1541 1542 1544 1545 1546 1547 1548 1549 1551 1552 1553 1554 1554 1555 1556 1557 1558 1559 1560 1561 1562 1563 1564 1566 1566 1567 1568 1569 1570 1571 1572 1573 1575
1521 1524 1528 1531 1533 1535 1537 1538 1540 1541 1543 1544 1546 1547 1548 1549 1550 1551 1553 1554 1555 1556 1557 1558 1558 1560 1561 1562 1563 1564 1565 1566 1567 1568 1569 1570 1571 1572 1573 1574 1575 1576 1577
1523 1526 1529 1532 1534 1536 1538 1540 1542 1543 1545 1546 1548 1549 1550 1551 1553 1554 1555 1556 1557 1558 1559 1560 1561 1562 1563 1564 1565 1566 1567 1568 1569 1570 1571 1572 1573 1574 1575 1577 1578 1579 1580
1524 1528 1531 1533 1536 1538 1540 1542 1543 1545 1547 1548 1549 1551 1552 1553 1554 1556 1557 1558 1559 1560 1561 1562 1563 1564 1565 1567 1567 1568 1569 1570 1571 1572 1573 1575 1576 1577 1578 1579 1580 1581 1583
1525 1529 1532 1535 1537 1539 1541 1543 1545 1547 1548 1550 1551 1552 1554 1555 1556 1557 1559 1560 1561 1562 1563 1565 1566 1567 1568 1569 1570 1571 1572 1573 1574 1575 1576 1577 1578 1579 1580 1581 1582 1583 1585
1527 1530 1533 1536 1538 1540 1543 1545 1546 1548 1550 1551 1552 1554 1555 1557 1558 1559 1560 1562 1563 1564 1565 1567 1568 1569 1570 1571 1572 1573 1574 1575 1576 1577 1578 1579 1580 1581 1582 1583 1584 1586 1587
1528 1531 1534 1536 1539 1542 1544 1546 1548 1549 1551 1552 1554 1555 1557 1558 1559 1561 1562 1563 1565 1566 1568 1569 1570 1572 1573 1574 1575 1575 1576 1577 1578 1579 1580 1581 1582 1583 1584 1585 1587 1588 1589
1529 1532 1534 1537 1540 1542 1544 1547 1549 1550 1552 1554 1555 1557 1558 1560 1561 1562 1564 1565 1567 1568 1570 1571 1572 1574 1575 1576 1577 1578 1578 1579 1580 1581 1582 1583 1584 1585 1586 1587 1589 1589 1591
1529 1532 1534 1537 1540 1542 1545 1547 1549 1551 1553 1555 1556 1558 1559 1561 1562 1564 1565 1567 1568 1570 1571 1573 1574 1576 1577 1578 1579 1580 1580 1581 1582 1583 1584 1585 1586 1587 1588 1589 1590 1591 1592
1527 1531 1534 1537 1540 1542 1545 1547 1550 1552 1554 1556 1557 1559 1560 1562 1563 1565 1566 1568 1570 1571 1573 1574 1576 1577 1578 1580 1581 1581 1582 1583 1584 1585 1585 1586 1587 1588 1589 1591 1592 1593 1594
1526 1530 1534 1537 1540 1543 1545 1548 1550 1552 1554 1556 1558 1560 1561 1563 1564 1566 1567 1569 1571 1572 1574 1575 1577 1578 1580 1581 1582 1583 1584 1584 1585 1586 1587 1588 1589 1590 1591 1592 1593 1594 1595
1526 1529 1533 1536 1539 1542 1545 1547 1550 1552 1555 1557 1559 1560 1562 1564 1565 1567 1568 1570 1572 1574 1575 1577 1578 1580 1581 1582 1583 1584 1585 1585 1586 1587 1588 1589 1590 1591 1592 1593 1594 1595 1596
1525 1528 1532 1535 1538 1541 1544 1547 1550 1552 1555 1557 1559 1561 1563 1565 1566 1568 1570 1571 1573 1575 1576 1578 1579 1581 1582 1583 1584 1585 1586 1586 1587 1588 1589 1590 1591 1591 1592 1593 1594 1595 1597
1524 1527 1531 1534 1538 1541 1544 1547 1550 1553 1556 1558 1560 1562 1564 1566 1567 1569 1571 1572 1574 1576 1577 1579 1580 1581 1583 1584 1585 1586 1587 1587 1588 1589 1590 1590 1591 1592 1593 1594 1595 1596 1597
1523 1526 1530 1534 1537 1540 1544 1547 1550 1553 1556 1558 1560 1562 1564 1566 1568 1569 1571 1573 1575 1576 1578 1579 1580 1582 1583 1584 1585 1586 1587 1588 1588 1589 1590 1591 1591 1592 1593 1594 1595 1596 1597
1522 1525 1529 1532 1536 1539 1543 1546 1550 1553 1555 1558 1560 1562 1564 1566 1568 1570 1571 1573 1575 1577 1578 1580 1581 1582 1583 1584 1585 1586 1587 1588 1589 1589 1590 1591 1592 1592 1593 1594 1595 1595 1596
1520 1524 1527 1531 1534 1538 1542 1546 1549 1552 1554 1557 1559 1561 1563 1566 1568 1569 1571 1573 1575 1576 1578 1579 1581 1582 1583 1584 1585 1586 1587 1588 1589 1589 1590 1591 1591 1592 1593 1593 1594 1595 1595
1520 1523 1526 1529 1532 1536 1541 1545 1548 1550 1553 1556 1558 1560 1563 1565 1567 1569 1571 1573 1574 1576 1577 1579 1580 1582 1583 1584 1585 1586 1587 1587 1588 1589 1589 1590 1591 1591 1592 1593 1593 1594 1594
1518 1521 1524 1527 1530 1534 1538 1542 1545 1548 1551 1554 1557 1559 1562 1564 1566 1568 1570 1572 1573 1575 1576 1578 1580 1581 1582 1583 1585 1585 1586 1586 1587 1588 1588 1589 1590 1590 1591 1592 1592 1593 1593
1516 1519 1522 1525 1529 1533 1537 1541 1544 1547 1550 1553 1555 1558 1560 1563 1565 1567 1569 1571 1572 1574 1575 1577 1579 1580 1581 1583 1584 1584 1585 1586 1586 1586 1587 1588 1588 1589 1590 1590 1591 1591 1592
1515 1518 1520 1524 1528 1532 1536 1539 1543 1546 1549 1551 1554 1556 1559 1561 1563 1565 1567 1570 1571 1573 1574 1576 1577 1579 1580 1581 1582 1584 1584 1584 1584 1585 1585 1586 1587 1587 1588 1589 1589 1590 1591
1514 1517 1520 1523 1526 1530 1534 1537 1540 1543 1545 1548 1552 1555 1557 1559 1561 1564 1566 1568 1570 1571 1573 1574 1575 1577 1578 1579 1581 1582 1583 1583 1584 1584 1584 1584 1585 1586 1586 1587 1587 1588 1589
1514 1516 1519 1522 1525 1529 1532 1535 1538 1542 1545 1548 1551 1553 1555 1558 1560 1562 1564 1566 1568 1569 1571 1572 1573 1575 1576 1578 1579 1580 1580 1581 1582 1583 1582 1583 1583 1584 1584 1585 1586 1586 1587
1513 1516 1518 1521 1524 1527 1531 1534 1537 1540 1543 1546 1548 1551 1553 1555 1557 1560 1562 1564 1565 1567 1569 1570 1571 1573 1574 1575 1577 1578 1578 1579 1580 1580 1581 1581 1581 1582 1583 1583 1583 1584 1584